Date String (YYYY-MM-DD hh:mm:ss) UTC,Instrument flags,Ambient pressure (hPa),Sample flow (lpm),Bypass flow (lpm),Sample temperature (°C),Ambient temperature (°C),ASC tube jacket temperature (°C),LED temperature (°C),Box temperature (°C),Sample RH (%),Span deviation,Mass concentration (μg/m³),Mass concentration (μg/m³),Mass concentration (μg/m³)
DateTimeUTC,F1_M11,P_M11,Q1_M11,Q2_M11,T1_M11,T2_M11,T3_M11,T4_M11,T5_M11,U1_M11,ZSPAN_M11,X0_M11,X2_M11,X1_M11
2022-12-09 05:00:00,,0827.0,4.99,0.00,21.9,21.1,00.0,30.7,23.8,06.2,0000.0,0001.46,0000.88,0000.64
2022-12-09 05:01:00,,0827.0,4.99,0.00,22.0,21.0,00.0,30.7,23.8,06.2,0000.0,0001.49,0000.90,0000.65
2022-12-09 05:02:00,,0827.0,5.00,0.00,22.0,21.0,00.0,30.7,23.8,06.2,0000.0,0001.58,0000.93,0000.65
2022-12-09 05:03:00,,0827.1,5.02,0.00,22.0,20.9,00.0,30.7,23.8,06.2,0000.0,0001.65,0000.93,0000.65
2022-12-09 05:04:00,,0827.1,5.00,0.00,22.0,20.9,00.0,30.7,23.8,06.1,0000.0,0001.58,0000.91,0000.66
2022-12-09 05:05:00,,0827.1,4.99,0.00,22.0,20.8,00.0,30.7,23.8,05.9,0000.0,0001.41,0000.85,0000.65
2022-12-09 05:06:00,,0827.0,4.99,0.00,22.0,20.7,00.0,30.7,23.8,05.9,0000.0,0001.38,0000.84,0000.64
2022-12-09 05:07:00,,0827.3,4.99,0.00,22.0,20.7,00.0,30.7,23.8,05.9,0000.0,0001.39,0000.84,0000.65
2022-12-09 05:08:00,,0827.1,5.01,0.00,21.9,20.6,00.0,30.7,23.8,05.8,0000.0,0001.36,0000.83,0000.64
2022-12-09 05:09:00,,0827.1,5.02,0.00,21.9,20.6,00.0,30.7,23.7,05.7,0000.0,0001.20,0000.79,0000.63
2022-12-09 05:10:00,,0827.2,4.99,0.00,21.9,20.6,00.0,30.7,23.7,05.7,0000.0,0001.15,0000.76,0000.61
2022-12-09 05:11:00,,0827.1,4.99,0.00,21.9,20.5,00.0,30.7,23.7,05.6,0000.0,0001.09,0000.73,0000.60
2022-12-09 05:12:00,,0827.2,4.99,0.00,21.9,20.5,00.0,30.7,23.7,05.7,0000.0,0001.11,0000.73,0000.59
2022-12-09 05:13:00,,0827.2,5.02,0.00,21.9,20.4,00.0,30.7,23.7,05.7,0000.0,0001.09,0000.72,0000.58
2022-12-09 05:14:00,,0827.2,5.01,0.00,21.9,20.4,00.0,30.7,23.6,05.8,0000.0,0000.98,0000.69,0000.56
2022-12-09 05:15:00,,0827.3,4.99,0.00,21.8,20.3,00.0,30.7,23.6,05.6,0000.0,0000.97,0000.68,0000.55
2022-12-09 05:16:00,,0827.2,4.99,0.00,21.8,20.3,00.0,30.7,23.6,05.6,0000.0,0000.96,0000.67,0000.54
2022-12-09 05:17:00,,0827.2,5.00,0.00,21.8,20.3,00.0,30.7,23.6,05.6,0000.0,0001.02,0000.67,0000.52
2022-12-09 05:18:00,,0827.2,5.02,0.00,21.9,21.1,00.0,30.6,23.7,05.7,0000.0,0001.09,0000.66,0000.51
2022-12-09 05:19:00,,0827.3,5.00,0.00,22.0,22.0,00.0,30.7,24.0,05.7,0000.0,0001.09,0000.66,0000.51
2022-12-09 05:20:00,,0827.3,5.01,0.00,22.0,22.1,00.0,30.7,24.0,05.6,0000.0,0001.09,0000.66,0000.51
2022-12-09 05:21:00,,0827.2,5.00,0.00,22.1,21.8,00.0,30.8,24.0,05.5,0000.0,0001.07,0000.64,0000.50
2022-12-09 05:22:00,,0827.3,5.00,0.00,22.1,21.6,00.0,30.8,24.0,05.5,0000.0,0001.06,0000.64,0000.50
2022-12-09 05:23:00,,0827.2,4.99,0.00,22.1,21.4,00.0,30.8,24.0,05.4,0000.0,0001.05,0000.63,0000.50
2022-12-09 05:24:00,,0827.2,5.00,0.00,22.1,21.3,00.0,30.8,24.0,05.4,0000.0,0001.00,0000.62,0000.50
2022-12-09 05:25:00,,0827.4,5.01,0.00,22.1,21.2,00.0,30.8,23.9,05.5,0000.0,0000.97,0000.61,0000.51
2022-12-09 05:26:00,,0827.2,5.01,0.00,22.1,21.1,00.0,30.8,24.0,05.7,0000.0,0001.03,0000.63,0000.51
2022-12-09 05:27:00,,0827.2,5.00,0.00,22.1,21.0,00.0,30.8,23.9,05.6,0000.0,0001.05,0000.64,0000.53
2022-12-09 05:28:00,,0827.2,4.99,0.00,22.1,21.0,00.0,30.8,23.9,05.6,0000.0,0001.04,0000.65,0000.54
2022-12-09 05:29:00,,0827.3,4.99,0.00,22.1,20.9,00.0,30.8,23.9,05.5,0000.0,0000.93,0000.65,0000.54
2022-12-09 05:30:00,,0827.4,5.00,0.00,22.1,20.9,00.0,30.9,23.9,05.5,0000.0,0000.95,0000.66,0000.53
2022-12-09 05:31:00,,0827.4,5.01,0.00,22.1,20.8,00.0,30.9,23.9,06.0,0000.0,0001.02,0000.70,0000.54
2022-12-09 05:32:00,,0827.4,5.02,0.00,22.1,20.7,00.0,30.9,23.9,06.4,0000.0,0001.12,0000.74,0000.57
2022-12-09 05:33:00,,0827.4,4.98,0.00,22.0,20.6,00.0,30.9,23.8,06.6,0000.0,0001.37,0000.78,0000.59
2022-12-09 05:34:00,,0827.4,4.98,0.00,22.0,20.5,00.0,30.9,23.8,06.6,0000.0,0001.41,0000.80,0000.61
2022-12-09 05:35:00,,0827.4,5.00,0.00,22.0,20.4,00.0,30.9,23.8,06.4,0000.0,0001.72,0000.87,0000.63
2022-12-09 05:36:00,,0827.4,5.02,0.00,22.0,20.4,00.0,30.9,23.7,06.4,0000.0,0001.79,0000.91,0000.65
2022-12-09 05:37:00,,0827.3,4.98,0.00,21.9,20.3,00.0,30.8,23.7,06.3,0000.0,0001.77,0000.91,0000.66
2022-12-09 05:38:00,,0827.4,4.99,0.00,21.9,20.3,00.0,30.8,23.7,06.4,0000.0,0001.78,0000.92,0000.67
2022-12-09 05:39:00,,0827.3,5.02,0.00,21.9,20.3,00.0,30.8,23.7,06.3,0000.0,0001.80,0000.93,0000.68
2022-12-09 05:40:00,,0827.2,5.01,0.00,21.9,20.3,00.0,30.8,23.7,06.4,0000.0,0001.84,0000.95,0000.70
2022-12-09 05:41:00,,0827.3,4.99,0.00,21.9,20.3,00.0,30.8,23.7,06.4,0000.0,0002.43,0000.96,0000.72
2022-12-09 05:42:00,,0827.3,4.98,0.00,21.9,20.3,00.0,30.8,23.7,06.4,0000.0,0002.43,0000.94,0000.72
2022-12-09 05:43:00,,0827.4,5.01,0.00,21.8,20.1,00.0,30.8,23.5,06.5,0000.0,0002.38,0000.93,0000.72
2022-12-09 05:44:00,,0827.4,5.02,0.00,21.8,19.9,00.0,30.8,23.4,06.5,0000.0,0002.22,0000.93,0000.72
2022-12-09 05:45:00,,0827.4,4.99,0.00,21.7,20.0,00.0,30.7,23.4,06.5,0000.0,0002.22,0000.94,0000.73
2022-12-09 05:46:00,,0827.4,4.99,0.00,21.8,20.9,00.0,30.7,23.7,06.4,0000.0,0002.05,0000.92,0000.73
2022-12-09 05:47:00,,0827.4,4.99,0.00,21.9,21.9,00.0,30.7,23.9,06.4,0000.0,0001.91,0000.89,0000.74
2022-12-09 05:48:00,,0827.4,5.01,0.00,22.0,22.0,00.0,30.7,24.0,06.4,0000.0,0001.89,0000.88,0000.73
2022-12-09 05:49:00,,0827.4,5.01,0.00,22.0,21.6,00.0,30.7,23.9,06.3,0000.0,0001.93,0000.89,0000.74
2022-12-09 05:50:00,,0827.4,5.01,0.00,22.0,21.2,00.0,30.8,23.8,06.1,0000.0,0001.94,0000.89,0000.74
2022-12-09 05:51:00,,0827.4,5.00,0.00,22.0,21.0,00.0,30.8,23.8,06.0,0000.0,0001.90,0000.88,0000.73
2022-12-09 05:52:00,,0827.3,4.99,0.00,22.0,20.9,00.0,30.8,23.8,06.0,0000.0,0001.41,0000.87,0000.72
2022-12-09 05:53:00,,0827.2,4.99,0.00,22.0,20.9,00.0,30.8,23.8,06.2,0000.0,0001.31,0000.88,0000.72
2022-12-09 05:54:00,,0827.2,5.00,0.00,22.0,20.8,00.0,30.8,23.7,06.1,0000.0,0001.31,0000.89,0000.71
2022-12-09 05:55:00,,0827.3,5.02,0.00,22.0,20.7,00.0,30.8,23.7,06.1,0000.0,0001.33,0000.89,0000.70
2022-12-09 05:56:00,,0827.4,5.00,0.00,21.9,20.5,00.0,30.8,23.7,06.1,0000.0,0001.31,0000.88,0000.70
2022-12-09 05:57:00,,0827.4,4.99,0.00,21.9,20.4,00.0,30.8,23.6,06.1,0000.0,0001.75,0000.86,0000.69
2022-12-09 05:58:00,,0827.4,4.98,0.00,21.9,20.2,00.0,30.8,23.6,06.1,0000.0,0002.68,0000.86,0000.68
2022-12-09 05:59:00,,0827.4,5.02,0.00,21.8,20.1,00.0,30.8,23.5,06.2,0000.0,0002.70,0000.87,0000.68
